User: anonymous   Login
Location: Castillon
(43.0896°N, 0.2156°E)
Time: 01:49:54
(UTC+00:00)
Language:

Okean 1 Rocket - Orbit

View from above orbital plane
View from above orbital plane
View from above satellite
View from above satellite

Ground track
Ground track

The orbit data is extracted from the following two-line orbital elements,

1 19275U 88056B   21269.38897493  .00000125  00000-0  12420-4 0  9993
2 19275  82.5145 308.7857 0021590 100.3821 259.9829 14.82807522773663
Epoch (UTC): 26 September 2021 09:20:07
Eccentricity: 0.0021590
inclination: 82.5145°
perigee height: 605 km
apogee height: 635 km
right ascension of ascending node: 308.7857°
argument of perigee: 100.3821°
revolutions per day: 14.82807522
mean anomaly at epoch: 259.9829°
orbit number at epoch: 77366

The dashed part of the orbit path shows where the satellite is in the earth's shadow,  

DLR